START_TIME,STEP,MOV.,M6,t_acc.,M7,t_acc.,M19,t_acc.,H36,t_acc.
1981-08-25 03:00:28.100 ,0,0,0.,12.0,0.,12.0,0.,12.0,0.,12.0
1981-08-25 03:00:40.100 ,0,0,0.,12.0,0.,12.0,0.,12.0,0.,12.0
1981-08-25 03:00:52.100 ,0,1,0.,12.0,0.,12.0,0.,12.0,0.,12.0
1981-08-25 03:01:04.100 ,0,1,0.,12.0,0.,12.0,0.,12.0,0.,12.0
1981-08-25 03:01:16.100 ,0,0,0.,12.0,0.,12.0,0.,12.0,0.,12.0
1981-08-25 03:01:28.100 ,0,0,0.,12.0,0.,12.0,0.,12.0,0.,12.0
1981-08-25 03:01:40.100 ,1,1,0.,12.0,0.,12.0,0.,12.0,0.,12.0
1981-08-25 03:01:52.100 ,1,1,0.,12.0,0.,12.0,0.,12.0,0.,12.0
1981-08-25 03:02:04.100 ,1,0,0.,12.0,0.,12.0,0.,12.0,0.,12.0
1981-08-25 03:02:16.100 ,1,0,0.,12.0,0.,12.0,0.,12.0,0.,12.0
1981-08-25 03:02:28.100 ,2,1,0.,12.0,0.,12.0,0.,12.0,0.,12.0
1981-08-25 03:02:40.100 ,2,1,0.,12.0,0.,12.0,0.,12.0,0.,12.0
1981-08-25 03:02:52.100 ,2,0,0.,12.0,0.,12.0,0.,12.0,0.,12.0
1981-08-25 03:03:04.100 ,2,0,0.,12.0,0.,12.0,0.,12.0,0.,12.0
1981-08-25 03:03:16.100 ,3,1,0.,12.0,0.,12.0,0.,12.0,0.,12.0
1981-08-25 03:03:28.100 ,3,1,0.,12.0,0.,12.0,0.,12.0,0.,12.0
1981-08-25 03:03:40.100 ,3,0,0.,12.0,0.,12.0,0.,12.0,0.,12.0
1981-08-25 03:03:52.100 ,3,0,0.,12.0,0.,12.0,0.,12.0,0.,12.0
1981-08-25 03:04:04.100 ,4,1,0.,12.0,0.,12.0,0.,12.0,0.,12.0
1981-08-25 03:04:16.100 ,4,1,0.,12.0,0.,12.0,0.,12.0,0.,12.0
1981-08-25 03:04:28.100 ,4,0,0.,12.0,0.,12.0,0.,12.0,0.,12.0
1981-08-25 03:04:40.100 ,4,0,0.,12.0,0.,12.0,0.,12.0,0.,12.0
1981-08-25 03:04:52.100 ,5,1,0.,12.0,0.,12.0,0.,12.0,0.,12.0
1981-08-25 03:05:04.100 ,5,1,0.,12.0,0.,12.0,0.,12.0,0.,12.0
1981-08-25 03:05:16.100 ,5,0,0.,12.0,0.,12.0,0.,12.0,0.,12.0
1981-08-25 03:05:28.100 ,5,0,0.,12.0,0.,12.0,0.,12.0,0.,12.0
1981-08-25 03:05:40.100 ,6,1,0.,12.0,0.,12.0,0.,12.0,0.,12.0
1981-08-25 03:05:52.100 ,6,1,0.,12.0,0.,12.0,0.,12.0,0.,12.0
1981-08-25 03:06:04.100 ,6,0,0.,12.0,0.,12.0,0.,12.0,0.,12.0
1981-08-25 03:06:16.100 ,6,0,0.,12.0,0.,12.0,0.,12.0,0.,12.0
1981-08-25 03:06:28.100 ,7,1,0.,12.0,0.,12.0,0.,12.0,0.,12.0
1981-08-25 03:06:40.100 ,7,1,0.,12.0,0.,12.0,0.,12.0,0.,12.0
1981-08-25 03:06:52.100 ,7,0,0.,12.0,0.,12.0,0.,12.0,0.,12.0
1981-08-25 03:07:04.100 ,7,0,0.,12.0,0.,12.0,0.,12.0,0.,12.0
1981-08-25 03:07:16.100 ,7,1,0.,12.0,0.,12.0,0.,12.0,0.,12.0
1981-08-25 03:07:28.100 ,7,1,0.,12.0,0.,12.0,0.,12.0,0.,12.0
1981-08-25 03:07:40.100 ,7,0,0.,12.0,0.,12.0,0.,12.0,0.,12.0
1981-08-25 03:07:52.100 ,7,0,0.,12.0,0.,12.0,0.,12.0,0.,12.0
1981-08-25 03:08:04.100 ,6,1,0.,12.0,0.,12.0,0.,12.0,0.,12.0
1981-08-25 03:08:16.100 ,6,1,0.,12.0,0.,12.0,0.,12.0,0.,12.0
1981-08-25 03:08:28.100 ,6,0,0.,12.0,0.,12.0,0.,12.0,0.,12.0
1981-08-25 03:08:40.100 ,6,0,0.,12.0,0.,12.0,0.,12.0,0.,12.0
1981-08-25 03:08:52.100 ,5,1,0.,12.0,0.,12.0,0.,12.0,0.,12.0
1981-08-25 03:09:04.100 ,5,1,0.,12.0,0.,12.0,0.,12.0,0.,12.0
1981-08-25 03:09:16.100 ,5,0,0.,12.0,0.,12.0,0.,12.0,0.,12.0
1981-08-25 03:09:28.100 ,5,0,0.,12.0,0.,12.0,0.,12.0,0.,12.0
1981-08-25 03:09:40.100 ,4,1,0.,12.0,0.,12.0,0.,12.0,0.,12.0
1981-08-25 03:09:52.100 ,4,1,0.,12.0,0.,12.0,0.,12.0,0.,12.0
1981-08-25 03:10:04.100 ,4,0,0.,12.0,0.,12.0,0.,12.0,0.,12.0
1981-08-25 03:10:16.100 ,4,0,0.,12.0,0.,12.0,0.,12.0,0.,12.0
1981-08-25 03:10:28.100 ,3,1,0.,12.0,0.,12.0,0.,12.0,0.,12.0
1981-08-25 03:10:40.100 ,3,1,0.,12.0,0.,12.0,0.,12.0,0.,12.0
1981-08-25 03:10:52.100 ,3,0,0.,12.0,0.,12.0,0.,12.0,0.,12.0
1981-08-25 03:11:04.100 ,3,0,0.,12.0,0.,12.0,0.,12.0,0.,12.0
1981-08-25 03:11:16.100 ,2,1,0.,12.0,0.,12.0,0.,12.0,0.,12.0
1981-08-25 03:11:28.100 ,2,1,0.,12.0,0.,12.0,0.,12.0,0.,12.0
1981-08-25 03:11:40.100 ,2,0,0.,12.0,0.,12.0,0.,12.0,0.,12.0
1981-08-25 03:11:52.100 ,2,0,0.,12.0,0.,12.0,0.,12.0,0.,12.0
1981-08-25 03:12:04.100 ,1,1,0.,12.0,0.,12.0,0.,12.0,0.,12.0
1981-08-25 03:12:16.100 ,1,1,0.,12.0,0.,12.0,0.,12.0,0.,12.0
1981-08-25 03:12:28.100 ,1,0,0.,12.0,0.,12.0,0.,12.0,0.,12.0
1981-08-25 03:12:40.100 ,1,0,0.,12.0,0.,12.0,0.,12.0,0.,12.0
1981-08-25 03:12:52.100 ,0,1,0.,12.0,0.,12.0,0.,12.0,0.,12.0
1981-08-25 03:13:04.100 ,0,1,0.,12.0,0.,12.0,0.,12.0,0.,12.0
1981-08-25 03:13:16.100 ,0,0,0.,12.0,0.,12.0,0.,12.0,0.,12.0
1981-08-25 03:13:28.100 ,0,0,0.,12.0,0.,12.0,0.,12.0,0.,12.0
1981-08-25 03:13:40.100 ,0,1,0.,12.0,0.,12.0,0.,12.0,0.,12.0
1981-08-25 03:13:52.100 ,0,1,0.,12.0,0.,12.0,0.,12.0,0.,12.0
1981-08-25 03:14:04.100 ,0,0,0.,12.0,0.,12.0,0.,12.0,0.,12.0
1981-08-25 03:14:16.100 ,0,0,0.,12.0,0.,12.0,0.,12.0,0.,12.0
1981-08-25 03:14:28.100 ,1,1,0.,12.0,0.,12.0,0.,12.0,0.,12.0
1981-08-25 03:14:40.100 ,1,1,0.,12.0,0.,12.0,0.,12.0,0.,12.0
1981-08-25 03:14:52.100 ,1,0,0.,12.0,0.,12.0,0.,12.0,0.,12.0
1981-08-25 03:15:04.100 ,1,0,0.,12.0,0.,12.0,0.,12.0,0.,12.0
1981-08-25 03:15:16.100 ,2,1,0.,12.0,0.,12.0,0.,12.0,0.,12.0
1981-08-25 03:15:28.100 ,2,1,0.,12.0,0.,12.0,0.,12.0,0.,12.0
1981-08-25 03:15:40.100 ,2,0,0.,12.0,0.,12.0,0.,12.0,0.,12.0
1981-08-25 03:15:52.100 ,2,0,0.,12.0,0.,12.0,0.,12.0,0.,12.0
1981-08-25 03:16:04.100 ,3,1,0.,12.0,0.,12.0,0.,12.0,0.,12.0
1981-08-25 03:16:16.100 ,3,1,0.,12.0,0.,12.0,0.,12.0,0.,12.0
1981-08-25 03:16:28.100 ,3,0,0.,12.0,0.,12.0,0.,12.0,0.,12.0
1981-08-25 03:16:40.100 ,3,0,0.,12.0,0.,12.0,0.,12.0,0.,12.0
1981-08-25 03:16:52.100 ,4,1,0.,12.0,0.,12.0,0.,12.0,0.,12.0
1981-08-25 03:17:04.100 ,4,1,0.,12.0,0.,12.0,0.,12.0,0.,12.0
1981-08-25 03:17:16.100 ,4,0,0.,12.0,0.,12.0,0.,12.0,0.,12.0
1981-08-25 03:17:28.100 ,4,0,0.,12.0,0.,12.0,0.,12.0,0.,12.0
1981-08-25 03:17:40.100 ,5,1,0.,12.0,0.,12.0,0.,12.0,0.,12.0
1981-08-25 03:17:52.100 ,5,1,0.,12.0,0.,12.0,0.,12.0,0.,12.0
1981-08-25 03:18:04.100 ,5,0,0.,12.0,0.,12.0,0.,12.0,0.,12.0
1981-08-25 03:18:16.100 ,5,0,0.,12.0,0.,12.0,0.,12.0,0.,12.0
1981-08-25 03:18:28.100 ,6,1,0.,12.0,0.,12.0,0.,12.0,0.,12.0
1981-08-25 03:18:40.100 ,6,1,0.,12.0,0.,12.0,0.,12.0,0.,12.0
1981-08-25 03:18:52.100 ,6,0,0.,12.0,0.,12.0,0.,12.0,0.,12.0
1981-08-25 03:19:04.100 ,6,0,0.,12.0,0.,12.0,0.,12.0,0.,12.0
1981-08-25 03:19:16.100 ,7,1,0.,12.0,0.,12.0,0.,12.0,0.,12.0
1981-08-25 03:19:28.100 ,7,1,0.,12.0,0.,12.0,0.,12.0,0.,12.0
1981-08-25 03:19:40.100 ,7,0,0.,12.0,0.,12.0,0.,12.0,0.,12.0
1981-08-25 03:19:52.100 ,7,0,0.,12.0,0.,12.0,0.,12.0,0.,12.0
1981-08-25 03:20:04.100 ,7,1,0.,12.0,0.,12.0,0.,12.0,0.,12.0
1981-08-25 03:20:16.100 ,7,1,0.,12.0,0.,12.0,0.,12.0,0.,12.0
1981-08-25 03:20:28.100 ,7,0,0.,12.0,0.,12.0,0.,12.0,0.,12.0
1981-08-25 03:20:40.100 ,7,0,0.,12.0,0.,12.0,0.,12.0,0.,12.0
1981-08-25 03:20:52.100 ,6,1,0.,12.0,0.,12.0,0.,12.0,0.,12.0
1981-08-25 03:21:04.100 ,6,1,0.,12.0,0.,12.0,0.,12.0,0.,12.0
1981-08-25 03:21:16.100 ,6,0,0.,12.0,0.,12.0,0.,12.0,0.,12.0
1981-08-25 03:21:28.100 ,6,0,0.,12.0,0.,12.0,0.,12.0,0.,12.0
1981-08-25 03:21:40.100 ,5,1,0.,12.0,0.,12.0,0.,12.0,0.,12.0
1981-08-25 03:21:52.100 ,5,1,0.,12.0,0.,12.0,0.,12.0,0.,12.0
1981-08-25 03:22:04.100 ,5,0,0.,12.0,0.,12.0,0.,12.0,0.,12.0
1981-08-25 03:22:16.100 ,5,0,0.,12.0,0.,12.0,0.,12.0,0.,12.0
1981-08-25 03:22:28.100 ,4,1,0.,12.0,0.,12.0,0.,12.0,0.,12.0
1981-08-25 03:22:40.100 ,4,1,0.,12.0,0.,12.0,0.,12.0,0.,12.0
1981-08-25 03:22:52.100 ,4,0,0.,12.0,0.,12.0,0.,12.0,0.,12.0
1981-08-25 03:23:04.100 ,4,0,0.,12.0,0.,12.0,0.,12.0,0.,12.0
1981-08-25 03:23:16.100 ,3,1,0.,12.0,0.,12.0,0.,12.0,0.,12.0
1981-08-25 03:23:28.100 ,3,1,0.,12.0,0.,12.0,0.,12.0,0.,12.0
1981-08-25 03:23:40.100 ,3,0,0.,12.0,0.,12.0,0.,12.0,0.,12.0
1981-08-25 03:23:52.100 ,3,0,0.,12.0,0.,12.0,0.,12.0,0.,12.0
1981-08-25 03:24:04.100 ,2,1,0.,12.0,0.,12.0,0.,12.0,0.,12.0
1981-08-25 03:24:16.100 ,2,1,0.,12.0,0.,12.0,0.,12.0,0.,12.0
1981-08-25 03:24:28.100 ,2,0,0.,12.0,0.,12.0,0.,12.0,0.,12.0
1981-08-25 03:24:40.100 ,2,0,0.,12.0,0.,12.0,0.,12.0,0.,12.0
1981-08-25 03:24:52.100 ,1,1,0.,12.0,0.,12.0,0.,12.0,0.,12.0
1981-08-25 03:25:04.100 ,1,1,0.,12.0,0.,12.0,0.,12.0,0.,12.0
1981-08-25 03:25:16.100 ,1,0,0.,12.0,0.,12.0,0.,12.0,0.,12.0
1981-08-25 03:25:28.100 ,1,0,0.,12.0,0.,12.0,0.,12.0,0.,12.0
1981-08-25 03:25:40.100 ,0,1,0.,12.0,0.,12.0,0.,12.0,0.,12.0
1981-08-25 03:25:52.100 ,0,1,0.,12.0,0.,12.0,0.,12.0,0.,12.0
1981-08-25 03:26:04.100 ,0,0,0.,12.0,0.,12.0,0.,12.0,0.,12.0
1981-08-25 03:26:16.100 ,0,0,0.,12.0,0.,12.0,0.,12.0,0.,12.0
1981-08-25 03:26:28.100 ,0,1,0.,12.0,0.,12.0,0.,12.0,0.,12.0
1981-08-25 03:26:40.100 ,0,1,0.,12.0,0.,12.0,0.,12.0,0.,12.0
1981-08-25 03:26:52.100 ,0,0,0.,12.0,0.,12.0,0.,12.0,0.,12.0
1981-08-25 03:27:04.100 ,0,0,0.,12.0,0.,12.0,0.,12.0,0.,12.0
1981-08-25 03:27:16.100 ,1,1,0.,12.0,0.,12.0,0.,12.0,0.,12.0
1981-08-25 03:27:28.100 ,1,1,0.,12.0,0.,12.0,0.,12.0,0.,12.0
1981-08-25 03:27:40.100 ,1,0,0.,12.0,0.,12.0,0.,12.0,0.,12.0
1981-08-25 03:27:52.100 ,1,0,0.,12.0,0.,12.0,0.,12.0,0.,12.0
1981-08-25 03:28:04.100 ,2,1,0.,12.0,0.,12.0,0.,12.0,0.,12.0
1981-08-25 03:28:16.100 ,2,1,0.,12.0,0.,12.0,0.,12.0,0.,12.0
1981-08-25 03:28:28.100 ,2,0,0.,12.0,0.,12.0,0.,12.0,0.,12.0
1981-08-25 03:28:40.100 ,2,0,0.,12.0,0.,12.0,0.,12.0,0.,12.0
1981-08-25 03:28:52.100 ,3,1,0.,12.0,0.,12.0,0.,12.0,0.,12.0
1981-08-25 03:29:04.100 ,3,1,0.,12.0,0.,12.0,0.,12.0,0.,12.0
1981-08-25 03:29:16.100 ,3,0,0.,12.0,0.,12.0,0.,12.0,0.,12.0
1981-08-25 03:29:28.100 ,3,0,0.,12.0,0.,12.0,0.,12.0,0.,12.0
1981-08-25 03:29:40.100 ,4,1,0.,12.0,0.,12.0,0.,12.0,0.,12.0
1981-08-25 03:29:52.100 ,4,1,0.,12.0,0.,12.0,0.,12.0,0.,12.0
1981-08-25 03:30:04.100 ,4,0,0.,12.0,0.,12.0,0.,12.0,0.,12.0
1981-08-25 03:30:16.100 ,4,0,0.,12.0,0.,12.0,0.,12.0,0.,12.0
1981-08-25 03:30:28.100 ,5,1,0.,12.0,0.,12.0,0.,12.0,0.,12.0
1981-08-25 03:30:40.100 ,5,1,0.,12.0,0.,12.0,0.,12.0,0.,12.0
1981-08-25 03:30:52.100 ,5,0,0.,12.0,0.,12.0,0.,12.0,0.,12.0
1981-08-25 03:31:04.100 ,5,0,0.,12.0,0.,12.0,0.,12.0,0.,12.0
1981-08-25 03:31:16.100 ,6,1,0.,12.0,0.,12.0,0.,12.0,0.,12.0
1981-08-25 03:31:28.100 ,6,1,0.,12.0,0.,12.0,0.,12.0,0.,12.0
1981-08-25 03:31:40.100 ,6,0,0.,12.0,0.,12.0,0.,12.0,0.,12.0
1981-08-25 03:31:52.100 ,6,0,0.,12.0,0.,12.0,0.,12.0,0.,12.0
1981-08-25 03:32:04.100 ,7,1,0.,12.0,0.,12.0,0.,12.0,0.,12.0
1981-08-25 03:32:16.100 ,7,1,0.,12.0,0.,12.0,0.,12.0,0.,12.0
1981-08-25 03:32:28.100 ,7,0,0.,12.0,0.,12.0,0.,12.0,0.,12.0
1981-08-25 03:32:40.100 ,7,0,0.,12.0,0.,12.0,0.,12.0,0.,12.0
1981-08-25 03:32:52.100 ,7,1,0.,12.0,0.,12.0,0.,12.0,0.,12.0
1981-08-25 03:33:04.100 ,7,1,0.,12.0,0.,12.0,0.,12.0,0.,12.0
1981-08-25 03:33:16.100 ,7,0,0.,12.0,0.,12.0,0.,12.0,0.,12.0
1981-08-25 03:33:28.100 ,7,0,0.,12.0,0.,12.0,0.,12.0,0.,12.0
1981-08-25 03:33:40.100 ,6,1,0.,12.0,0.,12.0,0.,12.0,0.,12.0
1981-08-25 03:33:52.100 ,6,1,0.,12.0,0.,12.0,0.,12.0,0.,12.0
1981-08-25 03:34:04.100 ,6,0,0.,12.0,0.,12.0,0.,12.0,0.,12.0
1981-08-25 03:34:16.100 ,6,0,0.,12.0,0.,12.0,0.,12.0,0.,12.0
1981-08-25 03:34:28.100 ,5,1,0.,12.0,0.,12.0,0.,12.0,0.,12.0
1981-08-25 03:34:40.100 ,5,1,0.,12.0,0.,12.0,0.,12.0,0.,12.0
1981-08-25 03:34:52.100 ,5,0,0.,12.0,0.,12.0,0.,12.0,0.,12.0
1981-08-25 03:35:04.100 ,5,0,0.,12.0,0.,12.0,0.,12.0,0.,12.0
1981-08-25 03:35:16.100 ,4,1,0.,12.0,0.,12.0,0.,12.0,0.,12.0
1981-08-25 03:35:28.100 ,4,1,0.,12.0,0.,12.0,0.,12.0,0.,12.0
1981-08-25 03:35:40.100 ,4,0,0.,12.0,0.,12.0,0.,12.0,0.,12.0
1981-08-25 03:35:52.100 ,4,0,0.,12.0,0.,12.0,0.,12.0,0.,12.0
1981-08-25 03:36:04.100 ,3,1,0.,12.0,0.,12.0,0.,12.0,0.,12.0
1981-08-25 03:36:16.100 ,3,1,0.,12.0,0.,12.0,0.,12.0,0.,12.0
1981-08-25 03:36:28.100 ,3,0,0.,12.0,0.,12.0,0.,12.0,0.,12.0
1981-08-25 03:36:40.100 ,3,0,0.,12.0,0.,12.0,0.,12.0,0.,12.0
1981-08-25 03:36:52.100 ,2,1,0.,12.0,0.,12.0,0.,12.0,0.,12.0
1981-08-25 03:37:04.100 ,2,1,0.,12.0,0.,12.0,0.,12.0,0.,12.0
1981-08-25 03:37:16.100 ,2,0,0.,12.0,0.,12.0,0.,12.0,0.,12.0
1981-08-25 03:37:28.100 ,2,0,0.,12.0,0.,12.0,0.,12.0,0.,12.0
1981-08-25 03:37:40.100 ,1,1,0.,12.0,0.,12.0,0.,12.0,0.,12.0
1981-08-25 03:37:52.100 ,1,1,0.,12.0,0.,12.0,0.,12.0,0.,12.0
1981-08-25 03:38:04.100 ,1,0,0.,12.0,0.,12.0,0.,12.0,0.,12.0
1981-08-25 03:38:16.100 ,1,0,0.,12.0,0.,12.0,0.,12.0,0.,12.0
1981-08-25 03:38:28.100 ,0,1,0.,12.0,0.,12.0,0.,12.0,0.,12.0
1981-08-25 03:38:40.100 ,0,1,0.,12.0,0.,12.0,0.,12.0,0.,12.0
1981-08-25 03:38:52.100 ,0,0,0.,12.0,0.,12.0,0.,12.0,0.,12.0
1981-08-25 03:39:04.100 ,0,0,0.,12.0,0.,12.0,0.,12.0,0.,12.0
1981-08-25 03:39:16.100 ,0,1,0.,12.0,0.,12.0,0.,12.0,0.,12.0
1981-08-25 03:39:28.100 ,0,1,0.,12.0,0.,12.0,0.,12.0,0.,12.0
1981-08-25 03:39:40.100 ,0,0,0.,12.0,0.,12.0,0.,12.0,0.,12.0
1981-08-25 03:39:52.100 ,0,0,0.,12.0,0.,12.0,0.,12.0,0.,12.0
1981-08-25 03:40:04.100 ,1,1,0.,12.0,0.,12.0,0.,12.0,0.,12.0
1981-08-25 03:40:16.100 ,1,1,0.,12.0,0.,12.0,0.,12.0,0.,12.0
1981-08-25 03:40:28.100 ,1,0,0.,12.0,0.,12.0,0.,12.0,0.,12.0
1981-08-25 03:40:40.100 ,1,0,0.,12.0,0.,12.0,0.,12.0,0.,12.0
1981-08-25 03:40:52.100 ,2,1,0.,12.0,0.,12.0,0.,12.0,0.,12.0
1981-08-25 03:41:04.100 ,2,1,0.,12.0,0.,12.0,0.,12.0,0.,12.0
1981-08-25 03:41:16.100 ,2,0,0.,12.0,0.,12.0,0.,12.0,0.,12.0
1981-08-25 03:41:28.100 ,2,0,0.,12.0,0.,12.0,0.,12.0,0.,12.0
1981-08-25 03:41:40.100 ,3,1,0.,12.0,0.,12.0,0.,12.0,0.,12.0
1981-08-25 03:41:52.100 ,3,1,0.,12.0,0.,12.0,0.,12.0,0.,12.0
1981-08-25 03:42:04.100 ,3,0,0.,12.0,0.,12.0,0.,12.0,0.,12.0
1981-08-25 03:42:16.100 ,3,0,0.,12.0,0.,12.0,0.,12.0,0.,12.0
1981-08-25 03:42:28.100 ,4,1,0.,12.0,0.,12.0,0.,12.0,0.,12.0
1981-08-25 03:42:40.100 ,4,1,0.,12.0,0.,12.0,0.,12.0,0.,12.0
1981-08-25 03:42:52.100 ,4,0,0.,12.0,0.,12.0,0.,12.0,0.,12.0
1981-08-25 03:43:04.100 ,4,0,0.,12.0,0.,12.0,0.,12.0,0.,12.0
1981-08-25 03:43:16.100 ,5,1,0.,12.0,0.,12.0,0.,12.0,0.,12.0
1981-08-25 03:43:28.100 ,5,1,0.,12.0,0.,12.0,0.,12.0,0.,12.0
1981-08-25 03:43:40.100 ,5,0,0.,12.0,0.,12.0,0.,12.0,0.,12.0
1981-08-25 03:43:52.100 ,5,0,0.,12.0,0.,12.0,0.,12.0,0.,12.0
1981-08-25 03:44:04.100 ,6,1,0.,12.0,0.,12.0,0.,12.0,0.,12.0
1981-08-25 03:44:16.100 ,6,1,0.,12.0,0.,12.0,0.,12.0,0.,12.0
1981-08-25 03:44:28.100 ,6,0,0.,12.0,0.,12.0,0.,12.0,0.,12.0
1981-08-25 03:44:40.100 ,6,0,0.,12.0,0.,12.0,0.,12.0,0.,12.0
1981-08-25 03:44:52.100 ,7,1,0.,12.0,0.,12.0,0.,12.0,0.,12.0
1981-08-25 03:45:04.100 ,7,1,0.,12.0,0.,12.0,0.,12.0,0.,12.0
1981-08-25 03:45:16.100 ,7,0,0.,12.0,0.,12.0,0.,12.0,0.,12.0
1981-08-25 03:45:28.100 ,7,0,0.,12.0,0.,12.0,0.,12.0,0.,12.0
1981-08-25 03:45:40.100 ,7,1,0.,12.0,0.,12.0,0.,12.0,0.,12.0
1981-08-25 03:45:52.100 ,7,1,0.,12.0,0.,12.0,0.,12.0,0.,12.0
1981-08-25 03:46:04.100 ,7,0,0.,12.0,0.,12.0,0.,12.0,0.,12.0
1981-08-25 03:46:16.100 ,7,0,0.,12.0,0.,12.0,0.,12.0,0.,12.0
1981-08-25 03:46:28.100 ,6,1,0.,12.0,0.,12.0,0.,12.0,0.,12.0
1981-08-25 03:46:40.100 ,6,1,0.,12.0,0.,12.0,0.,12.0,0.,12.0
1981-08-25 03:46:52.100 ,6,0,0.,12.0,0.,12.0,0.,12.0,0.,12.0
1981-08-25 03:47:04.100 ,6,0,0.,12.0,0.,12.0,0.,12.0,0.,12.0
1981-08-25 03:47:16.100 ,5,1,0.,12.0,0.,12.0,0.,12.0,0.,12.0
1981-08-25 03:47:28.100 ,5,1,0.,12.0,0.,12.0,0.,12.0,0.,12.0
1981-08-25 03:47:40.100 ,5,0,0.,12.0,0.,12.0,0.,12.0,0.,12.0
1981-08-25 03:47:52.100 ,5,0,0.,12.0,0.,12.0,0.,12.0,0.,12.0
1981-08-25 03:48:04.100 ,4,1,0.,12.0,0.,12.0,0.,12.0,0.,12.0
1981-08-25 03:48:16.100 ,4,1,0.,12.0,0.,12.0,0.,12.0,0.,12.0
1981-08-25 03:48:28.100 ,4,0,0.,12.0,0.,12.0,0.,12.0,0.,12.0
1981-08-25 03:48:40.100 ,4,0,0.,12.0,0.,12.0,0.,12.0,0.,12.0
1981-08-25 03:48:52.100 ,3,1,0.,12.0,0.,12.0,0.,12.0,0.,12.0
1981-08-25 03:49:04.100 ,3,1,0.,12.0,0.,12.0,0.,12.0,0.,12.0
1981-08-25 03:49:16.100 ,3,0,0.,12.0,0.,12.0,0.,12.0,0.,12.0
1981-08-25 03:49:28.100 ,3,0,0.,12.0,0.,12.0,0.,12.0,0.,12.0
1981-08-25 03:49:40.100 ,2,1,0.,12.0,0.,12.0,0.,12.0,0.,12.0
1981-08-25 03:49:52.100 ,2,1,0.,12.0,0.,12.0,0.,12.0,0.,12.0
1981-08-25 03:50:04.100 ,2,0,0.,12.0,0.,12.0,0.,12.0,0.,12.0
1981-08-25 03:50:16.100 ,2,0,0.,12.0,0.,12.0,0.,12.0,0.,12.0
1981-08-25 03:50:28.100 ,1,1,0.,12.0,0.,12.0,0.,12.0,0.,12.0
1981-08-25 03:50:40.100 ,1,1,0.,12.0,0.,12.0,0.,12.0,0.,12.0
1981-08-25 03:50:52.100 ,1,0,0.,12.0,0.,12.0,0.,12.0,0.,12.0
1981-08-25 03:51:04.100 ,1,0,0.,12.0,0.,12.0,0.,12.0,0.,12.0
1981-08-25 03:51:16.100 ,0,1,0.,12.0,0.,12.0,0.,12.0,0.,12.0
1981-08-25 03:51:28.100 ,0,1,0.,12.0,0.,12.0,0.,12.0,0.,12.0
1981-08-25 03:51:40.100 ,0,0,0.,12.0,0.,12.0,0.,12.0,0.,12.0
1981-08-25 03:51:52.100 ,0,0,0.,12.0,0.,12.0,0.,12.0,0.,12.0
1981-08-25 03:52:04.100 ,0,1,0.,12.0,0.,12.0,0.,12.0,0.,12.0
1981-08-25 03:52:16.100 ,0,1,0.,12.0,0.,12.0,0.,12.0,0.,12.0
1981-08-25 03:52:28.100 ,0,0,0.,12.0,0.,12.0,0.,12.0,0.,12.0
1981-08-25 03:52:40.100 ,0,0,0.,12.0,0.,12.0,0.,12.0,0.,12.0
1981-08-25 03:52:52.100 ,1,1,0.,12.0,0.,12.0,0.,12.0,0.,12.0
1981-08-25 03:53:04.100 ,1,1,0.,12.0,0.,12.0,0.,12.0,0.,12.0
1981-08-25 03:53:16.100 ,1,0,0.,12.0,0.,12.0,0.,12.0,0.,12.0
1981-08-25 03:53:28.100 ,1,0,0.,12.0,0.,12.0,0.,12.0,0.,12.0
1981-08-25 03:53:40.100 ,2,1,0.,12.0,0.,12.0,0.,12.0,0.,12.0
1981-08-25 03:53:52.100 ,2,1,0.,12.0,0.,12.0,0.,12.0,0.,12.0
1981-08-25 03:54:04.100 ,2,0,0.,12.0,0.,12.0,0.,12.0,0.,12.0
1981-08-25 03:54:16.100 ,2,0,0.,12.0,0.,12.0,0.,12.0,0.,12.0
1981-08-25 03:54:28.100 ,3,1,0.,12.0,0.,12.0,0.,12.0,0.,12.0
1981-08-25 03:54:40.100 ,3,1,0.,12.0,0.,12.0,0.,12.0,0.,12.0
1981-08-25 03:54:52.100 ,3,0,0.,12.0,0.,12.0,0.,12.0,0.,12.0
1981-08-25 03:55:04.100 ,3,0,0.,12.0,0.,12.0,0.,12.0,0.,12.0
1981-08-25 03:55:16.100 ,4,1,0.,12.0,0.,12.0,0.,12.0,0.,12.0
1981-08-25 03:55:28.100 ,4,1,0.,12.0,0.,12.0,0.,12.0,0.,12.0
1981-08-25 03:55:40.100 ,4,0,0.,12.0,0.,12.0,0.,12.0,0.,12.0
1981-08-25 03:55:52.100 ,4,0,0.,12.0,0.,12.0,0.,12.0,0.,12.0
1981-08-25 03:56:04.100 ,5,1,0.,12.0,0.,12.0,0.,12.0,0.,12.0
1981-08-25 03:56:16.100 ,5,1,0.,12.0,0.,12.0,0.,12.0,0.,12.0
1981-08-25 03:56:28.100 ,5,0,0.,12.0,0.,12.0,0.,12.0,0.,12.0
1981-08-25 03:56:40.100 ,5,0,0.,12.0,0.,12.0,0.,12.0,0.,12.0
1981-08-25 03:56:52.100 ,6,1,0.,12.0,0.,12.0,0.,12.0,0.,12.0
1981-08-25 03:57:04.100 ,6,1,0.,12.0,0.,12.0,0.,12.0,0.,12.0
1981-08-25 03:57:16.100 ,6,0,0.,12.0,0.,12.0,0.,12.0,0.,12.0
1981-08-25 03:57:28.100 ,6,0,0.,12.0,0.,12.0,0.,12.0,0.,12.0
1981-08-25 03:57:40.100 ,7,1,0.,12.0,0.,12.0,0.,12.0,0.,12.0
1981-08-25 03:57:52.100 ,7,1,0.,12.0,0.,12.0,0.,12.0,0.,12.0
1981-08-25 03:58:04.100 ,7,0,0.,12.0,0.,12.0,0.,12.0,0.,12.0
1981-08-25 03:58:16.100 ,7,0,0.,12.0,0.,12.0,0.,12.0,0.,12.0
1981-08-25 03:58:28.100 ,7,1,0.,12.0,0.,12.0,0.,12.0,0.,12.0
1981-08-25 03:58:40.100 ,7,1,0.,12.0,0.,12.0,0.,12.0,0.,12.0
1981-08-25 03:58:52.100 ,7,0,0.,12.0,0.,12.0,0.,12.0,0.,12.0
1981-08-25 03:59:04.100 ,7,0,0.,12.0,0.,12.0,0.,12.0,0.,12.0
1981-08-25 03:59:16.100 ,6,1,0.,12.0,0.,12.0,0.,12.0,0.,12.0
1981-08-25 03:59:28.100 ,6,1,0.,12.0,0.,12.0,0.,12.0,0.,12.0
1981-08-25 03:59:40.100 ,6,0,0.,12.0,0.,12.0,0.,12.0,0.,12.0
1981-08-25 03:59:52.100 ,6,0,0.,12.0,0.,12.0,0.,12.0,0.,12.0
1981-08-25 04:00:04.100 ,5,1,0.,12.0,0.,12.0,0.,12.0,0.,12.0
1981-08-25 04:00:16.100 ,5,1,0.,12.0,0.,12.0,0.,12.0,0.,12.0
1981-08-25 04:00:28.100 ,5,0,0.,12.0,0.,12.0,0.,12.0,0.,12.0
1981-08-25 04:00:40.100 ,5,0,0.,12.0,0.,12.0,0.,12.0,0.,12.0
1981-08-25 04:00:52.100 ,4,1,0.,12.0,0.,12.0,0.,12.0,0.,12.0
1981-08-25 04:01:04.100 ,4,1,0.,12.0,0.,12.0,0.,12.0,0.,12.0
1981-08-25 04:01:16.100 ,4,0,0.,12.0,0.,12.0,0.,12.0,0.,12.0
1981-08-25 04:01:28.100 ,4,0,0.,12.0,0.,12.0,0.,12.0,0.,12.0
1981-08-25 04:01:40.100 ,3,1,0.,12.0,0.,12.0,0.,12.0,0.,12.0
1981-08-25 04:01:52.100 ,3,1,0.,12.0,0.,12.0,0.,12.0,0.,12.0
1981-08-25 04:02:04.100 ,3,0,0.,12.0,0.,12.0,0.,12.0,0.,12.0
1981-08-25 04:02:16.100 ,3,0,0.,12.0,0.,12.0,0.,12.0,0.,12.0
1981-08-25 04:02:28.100 ,2,1,0.,12.0,0.,12.0,0.,12.0,0.,12.0
1981-08-25 04:02:40.100 ,2,1,0.,12.0,0.,12.0,0.,12.0,0.,12.0
1981-08-25 04:02:52.100 ,2,0,0.,12.0,0.,12.0,0.,12.0,0.,12.0
1981-08-25 04:03:04.100 ,2,0,0.,12.0,0.,12.0,0.,12.0,0.,12.0
1981-08-25 04:03:16.100 ,1,1,0.,12.0,0.,12.0,0.,12.0,0.,12.0
1981-08-25 04:03:28.100 ,1,1,0.,12.0,0.,12.0,0.,12.0,0.,12.0
1981-08-25 04:03:40.100 ,1,0,0.,12.0,0.,12.0,0.,12.0,0.,12.0
1981-08-25 04:03:52.100 ,1,0,0.,12.0,0.,12.0,0.,12.0,0.,12.0
1981-08-25 04:04:04.100 ,0,1,0.,12.0,0.,12.0,0.,12.0,0.,12.0
1981-08-25 04:04:16.100 ,0,1,0.,12.0,0.,12.0,0.,12.0,0.,12.0
1981-08-25 04:04:28.100 ,0,0,0.,12.0,0.,12.0,0.,12.0,0.,12.0
1981-08-25 04:04:40.100 ,0,0,0.,12.0,0.,12.0,0.,12.0,0.,12.0
1981-08-25 04:04:52.100 ,0,1,0.,12.0,0.,12.0,0.,12.0,0.,12.0
1981-08-25 04:05:04.100 ,0,1,0.,12.0,0.,12.0,0.,12.0,0.,12.0
1981-08-25 04:05:16.100 ,0,0,0.,12.0,0.,12.0,0.,12.0,0.,12.0
1981-08-25 04:05:28.100 ,0,0,0.,12.0,0.,12.0,0.,12.0,0.,12.0
1981-08-25 04:05:40.100 ,1,1,0.,12.0,0.,12.0,0.,12.0,0.,12.0
1981-08-25 04:05:52.100 ,1,1,0.,12.0,0.,12.0,0.,12.0,0.,12.0
1981-08-25 04:06:04.100 ,1,0,0.,12.0,0.,12.0,0.,12.0,0.,12.0
1981-08-25 04:06:16.100 ,1,0,0.,12.0,0.,12.0,0.,12.0,0.,12.0
1981-08-25 04:06:28.100 ,2,1,0.,12.0,0.,12.0,0.,12.0,0.,12.0
1981-08-25 04:06:40.100 ,2,1,0.,12.0,0.,12.0,0.,12.0,0.,12.0
1981-08-25 04:06:52.100 ,2,0,0.,12.0,0.,12.0,0.,12.0,0.,12.0
1981-08-25 04:07:04.100 ,2,0,0.,12.0,0.,12.0,0.,12.0,0.,12.0
1981-08-25 04:07:16.100 ,3,1,0.,12.0,0.,12.0,0.,12.0,0.,12.0
1981-08-25 04:07:28.100 ,3,1,0.,12.0,0.,12.0,0.,12.0,0.,12.0
1981-08-25 04:07:40.100 ,3,0,0.,12.0,0.,12.0,0.,12.0,0.,12.0
1981-08-25 04:07:52.100 ,3,0,0.,12.0,0.,12.0,0.,12.0,0.,12.0
1981-08-25 04:08:04.100 ,4,1,0.,12.0,0.,12.0,0.,12.0,0.,12.0
1981-08-25 04:08:16.100 ,4,1,0.,12.0,0.,12.0,0.,12.0,0.,12.0
1981-08-25 04:08:28.100 ,4,0,0.,12.0,0.,12.0,0.,12.0,0.,12.0
1981-08-25 04:08:40.100 ,4,0,0.,12.0,0.,12.0,0.,12.0,0.,12.0
1981-08-25 04:08:52.100 ,5,1,0.,12.0,0.,12.0,0.,12.0,0.,12.0
1981-08-25 04:09:04.100 ,5,1,0.,12.0,0.,12.0,0.,12.0,0.,12.0
1981-08-25 04:09:16.100 ,5,0,0.,12.0,0.,12.0,0.,12.0,0.,12.0
1981-08-25 04:09:28.100 ,5,0,0.,12.0,0.,12.0,0.,12.0,0.,12.0
1981-08-25 04:09:40.100 ,6,1,0.,12.0,0.,12.0,0.,12.0,0.,12.0
1981-08-25 04:09:52.100 ,6,1,0.,12.0,0.,12.0,0.,12.0,0.,12.0
1981-08-25 04:10:04.100 ,6,0,0.,12.0,0.,12.0,0.,12.0,0.,12.0
1981-08-25 04:10:16.100 ,6,0,0.,12.0,0.,12.0,0.,12.0,0.,12.0
1981-08-25 04:10:28.100 ,7,1,0.,12.0,0.,12.0,0.,12.0,0.,12.0
1981-08-25 04:10:40.100 ,7,1,0.,12.0,0.,12.0,0.,12.0,0.,12.0
1981-08-25 04:10:52.100 ,7,0,0.,12.0,0.,12.0,0.,12.0,0.,12.0
1981-08-25 04:11:04.100 ,7,0,0.,12.0,0.,12.0,0.,12.0,0.,12.0
1981-08-25 04:11:16.100 ,7,1,0.,12.0,0.,12.0,0.,12.0,0.,12.0
1981-08-25 04:11:28.100 ,7,1,0.,12.0,0.,12.0,0.,12.0,0.,12.0
1981-08-25 04:11:40.100 ,7,0,0.,12.0,0.,12.0,0.,12.0,0.,12.0
1981-08-25 04:11:52.100 ,7,0,0.,12.0,0.,12.0,0.,12.0,0.,12.0
1981-08-25 04:12:04.100 ,6,1,0.,12.0,0.,12.0,0.,12.0,0.,12.0
1981-08-25 04:12:16.100 ,6,1,0.,12.0,0.,12.0,0.,12.0,0.,12.0
1981-08-25 04:12:28.100 ,6,0,0.,12.0,0.,12.0,0.,12.0,0.,12.0
1981-08-25 04:12:40.100 ,6,0,0.,12.0,0.,12.0,0.,12.0,0.,12.0
1981-08-25 04:12:52.100 ,5,1,0.,12.0,0.,12.0,0.,12.0,0.,12.0
1981-08-25 04:13:04.100 ,5,1,0.,12.0,0.,12.0,0.,12.0,0.,12.0
1981-08-25 04:13:16.100 ,5,0,0.,12.0,0.,12.0,0.,12.0,0.,12.0
1981-08-25 04:13:28.100 ,5,0,0.,12.0,0.,12.0,0.,12.0,0.,12.0
1981-08-25 04:13:40.100 ,4,1,0.,12.0,0.,12.0,0.,12.0,0.,12.0
1981-08-25 04:13:52.100 ,4,1,0.,12.0,0.,12.0,0.,12.0,0.,12.0
1981-08-25 04:14:04.100 ,4,0,0.,12.0,0.,12.0,0.,12.0,0.,12.0
1981-08-25 04:14:16.100 ,4,0,0.,12.0,0.,12.0,0.,12.0,0.,12.0
1981-08-25 04:14:28.100 ,3,1,0.,12.0,0.,12.0,0.,12.0,0.,12.0
1981-08-25 04:14:40.100 ,3,1,0.,12.0,0.,12.0,0.,12.0,0.,12.0
1981-08-25 04:14:52.100 ,3,0,0.,12.0,0.,12.0,0.,12.0,0.,12.0
1981-08-25 04:15:04.100 ,3,0,0.,12.0,0.,12.0,0.,12.0,0.,12.0
1981-08-25 04:15:16.100 ,2,1,0.,12.0,0.,12.0,0.,12.0,0.,12.0
1981-08-25 04:15:28.100 ,2,1,0.,12.0,0.,12.0,0.,12.0,0.,12.0
1981-08-25 04:15:40.100 ,2,0,0.,12.0,0.,12.0,0.,12.0,0.,12.0
1981-08-25 04:15:52.100 ,2,0,0.,12.0,0.,12.0,0.,12.0,0.,12.0
1981-08-25 04:16:04.100 ,1,1,0.,12.0,0.,12.0,0.,12.0,0.,12.0
1981-08-25 04:16:16.100 ,1,1,0.,12.0,0.,12.0,0.,12.0,0.,12.0
1981-08-25 04:16:28.100 ,1,0,0.,12.0,0.,12.0,0.,12.0,0.,12.0
1981-08-25 04:16:40.100 ,1,0,0.,12.0,0.,12.0,0.,12.0,0.,12.0
1981-08-25 04:16:52.090 ,0,1,0.,12.0,0.,12.0,0.,12.0,0.,12.0
1981-08-25 04:17:04.090 ,0,1,0.,12.0,0.,12.0,0.,12.0,0.,12.0
1981-08-25 04:17:16.090 ,0,0,0.,12.0,0.,12.0,0.,12.0,0.,12.0
1981-08-25 04:17:28.090 ,0,0,0.,12.0,0.,12.0,0.,12.0,0.,12.0